[[{"header":{"parameterUnit":"m.s-1","parameterCategory":1,"la1":30.2991,"la2":30.254,"lo1":-89.0895,"lo2":-89.0444,"dy":0.0017,"dx":0.0017,"nx":28,"ny":28,"refTime":"2024-08-29T03:00:00:Z","depth":0,"parameterNumber":2,"parameterNumberName":"U-component_of_WINDS"},"data":[0,0,0,0,0,0,0,0,0,0,0,0,0,0,0,0,0,0,0,0,0,0,0,0,0,0,0,0,0,0,0,0,0,0,0,0,0,0,0,0,0,0,0,0,0,0,0,0,0,0,0,0,0,0,0,0,0,0,-3.0191,-3.019,0,-3.0099,-3.0098,-3.0097,-3.0012,-3.0011,-3.001,-3.0009,-2.991,-2.9908,-2.9907,0,0,0,0,0,0,0,0,0,0,0,0,0,-3.0293,-3.0292,-3.0192,-3.019,-3.0189,-3.0099,-3.0098,-3.0096,-3.0012,-3.0011,-3.001,-3.0008,-2.9911,-2.9909,-2.9907,0,0,0,0,0,0,0,0,0,0,0,0,0,-3.0229,-3.0291,-3.0192,-3.0136,-3.0131,-3.0099,-3.0098,-3.0096,-3.0012,-3.0011,-3.0009,-3.0008,-2.9911,-2.9909,-2.9906,-2.9921,0,0,-2.9898,-2.9897,0,0,0,0,0,0,0,0,-3.0233,-3.0226,-3.0146,-3.014,-3.0134,-3.0065,-3.0097,-3.0037,-3.0013,-3.0057,-3.0009,-3.0007,-2.9963,-2.9956,-2.9942,-2.9916,-2.9912,-2.9898,-2.9897,-2.9896,-2.9895,0,0,0,0,0,0,0,-3.0238,-3.0229,-3.0155,-3.0145,-3.0137,-3.0115,-3.0105,-3.0085,-3.0019,-3.0053,-3.0047,-3.0037,-2.9959,-2.9944,-2.9939,-2.9911,-2.9898,-2.9896,-2.9894,-2.9894,-2.9893,-2.9895,0,0,0,0,0,0,-3.0251,-3.0233,-3.0158,-3.0152,-3.0181,-3.0115,-3.0103,-3.0089,-3.0019,-3.0007,-3.0039,-3.0034,-2.9949,-2.9942,-2.9935,-2.9947,-2.9896,-2.9893,-2.9892,-2.9892,-2.9894,-2.9895,0,0,0,0,0,0,-3.0253,-3.0245,-3.0161,-3.0191,-3.0179,-3.0115,-3.01,-3.0088,-3.0073,-3.0008,-2.9996,-3.0036,-2.9948,-2.9938,-2.9925,-2.9943,-2.9892,-2.989,-2.989,-2.9892,-2.9895,-2.9973,0,0,0,0,0,0,-3.0257,-3.0246,-3.0252,-3.0192,-3.0177,-3.0154,-3.0101,-3.0087,-3.0069,-3.0062,-3.0002,-2.9991,-2.9946,-2.993,-2.9923,-2.9938,-2.9888,-2.9888,-2.9891,-2.9894,-2.9968,-2.9977,-2.9985,0,0,0,0,0,-3.0261,-3.0276,-3.0252,-3.0244,-3.0183,-3.0156,-3.0147,-3.0096,-3.0071,-3.0075,-3.0034,-2.9993,-2.9943,-2.9929,-2.9921,-2.9936,-2.9887,-2.989,-2.9894,-2.9964,-2.9976,-2.9985,0,0,0,0,0,0,-3.0338,-3.0267,-3.024,-3.0237,-3.0203,-3.0141,-3.0145,-3.0109,-3.0081,-3.0075,-3.0011,-2.9999,-2.9993,-2.9963,-2.9949,-2.9947,-2.9909,-2.9911,-2.9966,-2.9976,-2.9984,-2.9991,-2.9886,0,0,0,0,0,-3.0355,-3.034,-3.0279,-3.0282,-3.0267,-3.021,-3.0195,-3.0159,-3.0121,-3.0106,-3.0063,-3.0027,-3.0003,-2.9988,-2.9962,-2.9965,-2.995,-2.9971,-2.9979,-2.9987,-2.9988,-2.9987,-2.9996,-2.9907,-2.9907,-2.9906,0,0,-3.0389,-3.0349,-3.0343,-3.0297,-3.0266,-3.0251,-3.0198,-3.0183,-3.0171,-3.0103,-3.0088,-3.0057,-3.0012,-3.0007,-3.0002,-2.9982,-3.001,-2.9991,-2.9997,-2.9995,-2.9992,-3.0,-3.0008,-2.9909,-2.9908,-2.9908,0,0,-3.0444,-3.0413,-3.0412,-3.0383,-3.0338,-3.0301,-3.0301,-3.0245,-3.0222,-3.0207,-3.0155,-3.014,-3.01,-3.007,-3.0049,-3.0096,-3.0057,-3.009,-3.0133,-3.0133,-3.014,-3.0146,-3.0161,-3.0168,-3.0092,-3.0092,-3.0092,0,-3.0492,-3.0468,-3.0416,-3.0405,-3.0386,-3.0327,-3.0325,-3.0299,-3.0248,-3.0236,-3.0214,-3.0164,-3.0129,-3.0116,-3.0128,-3.0114,-3.0111,-3.0095,-3.0143,-3.0149,-3.0153,-3.0168,-3.0174,-3.0096,-3.0096,-3.0095,-3.0095,0,-3.0528,-3.0513,-3.0518,-3.0472,-3.0453,-3.0447,-3.0394,-3.0382,-3.0348,-3.0313,-3.0298,-3.0256,-3.022,-3.0215,-3.0181,-3.0198,-3.0186,-3.0155,-3.0116,-3.0167,-3.0179,-3.0184,-3.0102,-3.0101,-3.01,-3.0099,0,0,-3.0626,-3.0554,-3.0556,-3.0535,-3.0482,-3.0469,-3.0461,-3.0428,-3.0418,-3.0386,-3.0376,-3.0345,-3.0317,-3.0294,-3.0256,-3.0257,-3.0296,-3.0225,-3.0223,-3.0239,-3.0311,-3.0334,-3.0341,-3.0271,-3.0272,-3.0272,-3.0315,0,-3.0671,-3.0654,-3.0608,-3.0604,-3.0589,-3.0533,-3.0526,-3.0492,-3.046,-3.0441,-3.0405,-3.0383,-3.0347,-3.0333,-3.0331,-3.0292,-3.0309,-3.0288,-3.026,-3.026,-3.0271,-3.0348,-3.0371,-3.0413,-3.0319,-3.032,-3.032,0,-3.072,-3.0693,-3.0689,-3.0638,-3.063,-3.0624,-3.0591,-3.0575,-3.0536,-3.0512,-3.0488,-3.0448,-3.0436,-3.0401,-3.0383,-3.037,-3.0356,-3.0336,-3.0336,-3.0329,-3.0292,-3.0342,-3.0425,-3.0431,-3.0328,-3.0327,-3.0327,0,-3.0791,-3.0754,-3.0746,-3.0729,-3.067,-3.0668,-3.0643,-3.0603,-3.0587,-3.0558,-3.0546,-3.0516,-3.0499,-3.0477,-3.0429,-3.0409,-3.0416,-3.0378,-3.0395,-3.0397,-3.0397,-3.0397,-3.0478,-3.0392,-3.0392,-3.0392,-3.0392,0,-3.0845,-3.0844,-3.0777,-3.0772,-3.077,-3.0717,-3.0716,-3.0685,-3.0651,-3.0639,-3.0589,-3.0578,-3.0517,-3.0499,-3.0462,-3.0453,-3.0446,-3.0425,-3.0415,-3.0429,-3.0431,-3.0417,-3.0412,-3.0393,-3.0393,-3.0393,-3.0392,0,-3.0923,-3.0878,-3.0866,-3.0812,-3.0799,-3.0799,-3.0752,-3.0745,-3.0711,-3.0696,-3.0689,-3.0635,-3.0612,-3.0563,-3.0526,-3.0501,-3.05,-3.0483,-3.0513,-3.0506,-3.0526,-3.0524,-3.0598,-3.0605,-3.0517,-3.0518,-3.0519,0,-3.0959,-3.0958,-3.0904,-3.0893,-3.0871,-3.0854,-3.0837,-3.0786,-3.0771,-3.0728,-3.0726,-3.07,-3.0675,-3.0641,-3.0597,-3.0569,-3.055,-3.0578,-3.0545,-3.0559,-3.0549,-3.0549,-3.0548,-3.0584,-3.0586,-3.0587,-3.0587,0,-3.1029,-3.1007,-3.0986,-3.0958,-3.0941,-3.0915,-3.0887,-3.0881,-3.0823,-3.0809,-3.0785,-3.0767,-3.073,-3.0704,-3.067,-3.0643,-3.0605,-3.0599,-3.0601,-3.0614,-3.0631,-3.0621,-3.0531,-3.0596,-3.0596,-3.0595,-3.0594,-3.0594,-3.1086,-3.1082,-3.1044,-3.1023,-3.0997,-3.0973,-3.0963,-3.0929,-3.0909,-3.0876,-3.0847,-3.0826,-3.0788,-3.0738,-3.0715,-3.0697,-3.0678,-3.0682,-3.0682,-3.0684,-3.0689,-3.0636,-3.0691,-3.0691,-3.069,-3.069,-3.069,0,-3.1152,-3.1126,-3.1107,-3.107,-3.1053,-3.1022,-3.099,-3.0977,-3.096,-3.0929,-3.0906,-3.088,-3.0855,-3.081,-3.0781,-3.0776,-3.0758,-3.077,-3.0769,-3.0763,-3.0708,-3.0708,-3.0785,-3.0785,-3.0785,-3.0785,-3.0785,-3.0785,-3.1184,-3.1176,-3.115,-3.1129,-3.1102,-3.1082,-3.1066,-3.1043,-3.1018,-3.0991,-3.097,-3.0942,-3.0906,-3.0874,-3.085,-3.0837,-3.0828,-3.0845,-3.0828,-3.0776,-3.0767,-3.0759,-3.0759,-3.0844,-3.0844,-3.0884,-3.0884,-3.0884]},{"header":{"parameterUnit":"m.s-1","parameterCategory":1,"la1":30.2991,"la2":30.254,"lo1":-89.0895,"lo2":-89.0444,"dy":0.0017,"dx":0.0017,"nx":28,"ny":28,"refTime":"2024-08-29T03:00:00:Z","depth":0,"parameterNumber":3,"parameterNumberName":"V-component_of_WINDS"},"data":[0,0,0,0,0,0,0,0,0,0,0,0,0,0,0,0,0,0,0,0,0,0,0,0,0,0,0,0,0,0,0,0,0,0,0,0,0,0,0,0,0,0,0,0,0,0,0,0,0,0,0,0,0,0,0,0,0,0,3.4613,3.4613,0,3.46,3.46,3.46,3.4527,3.4526,3.4524,3.4522,3.4509,3.451,3.4511,0,0,0,0,0,0,0,0,0,0,0,0,0,3.4576,3.4577,3.4613,3.4613,3.4613,3.46,3.46,3.46,3.4528,3.4525,3.4523,3.4521,3.4508,3.451,3.4511,0,0,0,0,0,0,0,0,0,0,0,0,0,3.458,3.4577,3.4613,3.4575,3.4572,3.4601,3.46,3.46,3.4528,3.4525,3.4523,3.452,3.4508,3.451,3.4512,3.4576,0,0,3.4517,3.4518,0,0,0,0,0,0,0,0,3.458,3.4582,3.4581,3.4578,3.4574,3.4563,3.4582,3.4592,3.4529,3.4545,3.4522,3.4519,3.4529,3.4529,3.4532,3.4575,3.4575,3.4518,3.4519,3.4519,3.452,0,0,0,0,0,0,0,3.458,3.4582,3.4608,3.4581,3.4577,3.4559,3.4557,3.4584,3.4552,3.4543,3.4538,3.4537,3.4526,3.4531,3.4531,3.4574,3.4517,3.4519,3.452,3.4521,3.4671,3.4674,0,0,0,0,0,0,3.4585,3.4582,3.4608,3.4608,3.4571,3.4562,3.4559,3.4569,3.4551,3.4546,3.4539,3.4534,3.4529,3.4529,3.4531,3.4605,3.4519,3.4521,3.4522,3.4668,3.4672,3.4675,0,0,0,0,0,0,3.4584,3.4588,3.4609,3.4593,3.4595,3.4565,3.4577,3.457,3.4574,3.4548,3.4542,3.4549,3.4526,3.4528,3.4565,3.4603,3.4522,3.4524,3.4665,3.4669,3.4673,3.4754,0,0,0,0,0,0,3.4584,3.4588,3.4612,3.4595,3.4596,3.4644,3.4579,3.4572,3.4578,3.457,3.4556,3.4551,3.4525,3.4563,3.4567,3.4605,3.4525,3.4661,3.4667,3.4672,3.4748,3.4761,3.4772,0,0,0,0,0,3.4582,3.4634,3.4613,3.4617,3.4625,3.4646,3.4647,3.4615,3.4581,3.4605,3.4589,3.4552,3.4599,3.4568,3.4572,3.461,3.4659,3.4665,3.4672,3.4743,3.4758,3.4771,0,0,0,0,0,0,3.4655,3.4631,3.4607,3.4655,3.4654,3.4634,3.4662,3.4632,3.464,3.4632,3.4593,3.459,3.4634,3.4626,3.4591,3.4672,3.4623,3.463,3.4675,3.469,3.4702,3.4702,3.4527,0,0,0,0,0,3.4678,3.4697,3.4675,3.4719,3.472,3.4692,3.47,3.4676,3.4672,3.4671,3.4657,3.4655,3.4669,3.4679,3.4691,3.4748,3.4743,3.4776,3.4788,3.4798,3.4804,3.4834,3.4849,3.4696,3.4696,3.4696,0,0,3.4722,3.4712,3.4726,3.4734,3.4729,3.475,3.4691,3.4716,3.4731,3.4674,3.4709,3.47,3.4695,3.4742,3.4762,3.4737,3.4846,3.4806,3.4814,3.4815,3.4842,3.4857,3.487,3.47,3.47,3.4699,0,0,3.4815,3.4809,3.4845,3.4843,3.4838,3.4819,3.4829,3.4814,3.4806,3.4841,3.4799,3.4817,3.4843,3.4841,3.4844,3.494,3.4906,3.4945,3.5006,3.5036,3.5048,3.5058,3.5092,3.5105,3.4952,3.4952,3.4952,0,3.487,3.4901,3.4868,3.4896,3.4901,3.4852,3.489,3.4889,3.4888,3.4893,3.4865,3.4897,3.489,3.4937,3.4961,3.4965,3.4974,3.4945,3.5049,3.5059,3.5068,3.51,3.5113,3.4957,3.4956,3.4956,3.4955,0,3.497,3.4992,3.5023,3.5024,3.5033,3.5065,3.5038,3.5051,3.5028,3.5013,3.505,3.504,3.505,3.506,3.5037,3.5104,3.5089,3.5056,3.5004,3.5088,3.5117,3.5129,3.4964,3.4962,3.496,3.4959,0,0,3.5104,3.509,3.5102,3.5102,3.5095,3.5111,3.5143,3.5153,3.5165,3.5167,3.5192,3.5217,3.5187,3.519,3.5167,3.5193,3.527,3.5156,3.5156,3.5177,3.5344,3.5368,3.5383,3.5249,3.5251,3.5253,3.5344,0,3.5193,3.5245,3.5218,3.5274,3.5294,3.525,3.5278,3.5276,3.5264,3.528,3.5267,3.5284,3.5243,3.5245,3.527,3.5255,3.5303,3.5249,3.5272,3.5273,3.5272,3.5398,3.5423,3.5509,3.5356,3.5357,3.5359,0,3.5301,3.5309,3.5368,3.5358,3.5366,3.5391,3.5399,3.5415,3.5414,3.5403,3.5408,3.538,3.541,3.5362,3.5404,3.5368,3.5377,3.5372,3.5374,3.5373,3.5319,3.54,3.5536,3.5549,3.5377,3.5375,3.5374,0,3.5393,3.5419,3.5457,3.5459,3.5449,3.5468,3.5465,3.5461,3.547,3.5477,3.5483,3.5494,3.55,3.5509,3.5485,3.5452,3.5531,3.548,3.5522,3.5523,3.5539,3.5538,3.5677,3.5547,3.5547,3.5547,3.5546,0,3.5493,3.553,3.5498,3.5522,3.5563,3.5533,3.5574,3.5566,3.5564,3.5585,3.5548,3.5569,3.5536,3.5555,3.5536,3.5574,3.5577,3.5569,3.5563,3.5571,3.5572,3.5575,3.5568,3.555,3.5549,3.5549,3.5548,0,3.5601,3.5581,3.562,3.5609,3.5607,3.5638,3.5628,3.565,3.5636,3.5664,3.5669,3.5648,3.5668,3.5645,3.5662,3.565,3.5701,3.5687,3.5702,3.5697,3.574,3.5736,3.5885,3.5903,3.5762,3.5764,3.5765,0,3.5665,3.5693,3.5686,3.5698,3.5698,3.5718,3.5727,3.5699,3.5711,3.5713,3.5734,3.5751,3.5763,3.5796,3.5782,3.5796,3.5781,3.5833,3.5783,3.5791,3.5781,3.5779,3.5782,3.5842,3.5844,3.5845,3.5846,0,3.5782,3.5771,3.5786,3.5799,3.5812,3.582,3.5825,3.5837,3.5809,3.5824,3.5844,3.5853,3.5872,3.5889,3.5899,3.5896,3.5867,3.5863,3.5873,3.5881,3.5888,3.5884,3.5728,3.5859,3.5857,3.5857,3.5856,3.5855,3.5869,3.5893,3.5892,3.591,3.5912,3.5919,3.5939,3.5929,3.5946,3.5959,3.5942,3.5968,3.5967,3.5978,3.5979,3.5998,3.5976,3.5991,3.5995,3.5998,3.6005,3.5886,3.6,3.5999,3.5999,3.5999,3.5998,0,3.5983,3.5981,3.5999,3.6009,3.6024,3.5997,3.6002,3.6016,3.6039,3.6042,3.6055,3.6079,3.6096,3.6085,3.61,3.6117,3.6104,3.6122,3.612,3.6119,3.6024,3.6013,3.6132,3.6132,3.6132,3.6132,3.6132,3.6132,3.6044,3.6082,3.6073,3.6112,3.611,3.6135,3.614,3.6147,3.6149,3.6177,3.6192,3.6185,3.6182,3.6197,3.6212,3.6208,3.6215,3.6237,3.6229,3.6139,3.6126,3.6113,3.6103,3.6239,3.624,3.6323,3.6323,3.6324]}]]